Погода в Дарганате

Погода в Дарганате : погода сейчас, прогноз погоды и архив. Всё, что Вы хотите узнать о погоде в Дарганате!

Хотите узнать прогноз погоды в Дарганате? Тогда Вам сюда: Погода в Дарганате

Поиск расширенной информации на нашем сайте:

Другие новости

Новости СМИ2

Главная страница сайта

Новости сайта

03.07.2017

Напоминаем, что на нашем специализированном сайте Метеоцентр.Азия вы можете получить высокодетализированные автоматические прогнозы погоды по пунктам России, СНГ и мира в авиационном формате (включающие направление и скорость ветра, видимость, явления погоды, количество и форму облачности, нижнюю и верхнюю границу облачности).


Погода в Дарганате - сегодня

Время (UTC), дата Ветер
(°,м/с) 
Видим.   Явления Облачность Т
(°С)
Тd
(°С)
f(%) Тe
(°С)
Pmin
(гПа)
dP
(гПа)
Po
(мм)
O2
(г/м3)
Тmin Tmax R s Состояние
почвы
15 18.11.18 120 (ЮВ) 20000 м    3/0 средняя 
[Ac cast]
+5.7 -3 54 +5  1024.2  0.3  755  298    +14       
18 18.11.18 110 (В) 20000 м    4/0 средняя 
[Ac cast]
+2.7 -2.5 69 +2  1024.5  0.2  755  302    +14       
21 18.11.18 120 (ЮВ) 20000 м    8/0 средняя 
[Ac As]
+3.5 -6.7 47 +3  1023.2  -1.3  754  301           
00 19.11.18 130 (ЮВ) 20000 м    8/0 средняя 
[Ac As]
+3.2 -6.3 50 +2  1022.8  -0.4  754  301           
03 19.11.18 110 (В) 20000 м    9/0 средняя 
[Ac As]
+3.3 -4.2 58 +4  1022.3  -0.5  753  300           
06 19.11.18 130 (ЮВ) 20000 м    9/0 средняя 
[Ac As]
+7 -3.6 47 +8  1023  0.9  754  297  +2.3         
09 19.11.18 тихо ()   10 км  слаб. ливневой дождь  10/10 600 м кучево-дожд. 
[Cb cap]
+6 +2.1 76 +6  1022.9  -0.2  754  297           
12 19.11.18 300 (СЗ) 10 км  слаб. ливневой дождь  10/10 600 м кучево-дожд. 
[Cb cap]
+5.5 +3.6 88 +5  1023.4  0.5  754  297           
15 19.11.18 270 (З) 7000 м    н/о 
+5.1 +1.7 79 +6  1024.2  0.9  755  298           
18 19.11.18 270 (З) 20000 м  {ливн. осадки}  9/6 600 м кучево-дожд., средняя 
[Cb cap|Ac As]
+3.4 +1.9 90 +4  1025  755  300    +9.7     
21 19.11.18 тихо ()   10 км    4/0 верхняя 
[Ci ing]
+2.3 +1.5 94 +2  1025.6  0.5  756  302           
00 20.11.18 260 (З) 10 км  {туман}  4/0 верхняя 
[Ci ing]
+1 +0.5 96 +2  1026  0.3  756  303           
03 20.11.18 240 (ЮЗ) 4000 м  дымка{туман}  10/10 600 м кучево-дожд. 
[Cb cap]
+2.6 +2.1 96 +2  1027.2  1.3  757  302           
06 20.11.18 230 (ЮЗ) 20000 м  {туман}  10/10 600 м кучево-дожд. 
[Cb cap]
+5.4 +4.7 95 +5  1028.6  1.5  758  299  -0.4         
09 20.11.18 220 (ЮЗ) 20000 м    10/10 600 м 
[Sc]
+8.2 +5.8 85 +8  1027.5  -0.8  758  295           
12 20.11.18 220 (ЮЗ) 20000 м    9/9 600 м 
[Sc]
+8.6 +5 78 +10  1026.7  -0.8  757  295           
15 20.11.18 090 (В) 20000 м    6/6 600 м 
[Sc]
+4.2 +3.2 93 +5  1027.2  0.2  757  300    +9       
18 20.11.18 110 (В) 20000 м    4/0 средняя 
[Ac und]
+2.5 +1.5 93 +2  1026.3  -1  756  302    +9       
21 20.11.18 110 (В) 10 км    3/0 средняя 
[Ac und]
+0.9 +0.1 94 1024.2  -2.1  755  303           
00 21.11.18 100 (В) 10 км    ясно 
+0.7 +0.1 96 -1  1021.3  -2.9  753  302           
03 21.11.18 080 (В) 10 км    6/0 средняя 
[Ac As]
+0.8 +0.3 96 1019.8  -1.5  751  302           
06 21.11.18 120 (ЮВ) 10 км    9/6 600 м средняя 
[Sc|Ac und]
+4.3 +1.8 84 +3  1017.2  -2.3  750  297  +0.2         
09 21.11.18 120 (ЮВ) 20000 м    9/4 600 м средняя 
[Sc|Ac und]
+8.3 +3.4 71 +6  1013.2  -3.7  747  292           
12 21.11.18 100 (В) 20000 м    9/4 600 м средняя 
[Sc|Ac und]
+9.2 +5.1 75 +10  1011  -2.2  745  290           
15 21.11.18 130 (ЮВ) 20000 м    9/3 600 м средняя 
[Sc|Ac und]
+6.4 +4.8 89 +7  1010  -1.1  744  292    +9.5       
Время (UTC), дата Ветер
(°,м/с) 
Видим.   Явления Облачность Т
(°С)
Тd
(°С)
f(%) Тe
(°С)
Pmin
(гПа)
dP
(гПа)
Po
(мм)
O2
(г/м3)
Тmin Tmax R s Состояние
почвы

Для получения пояснительной информации подведите курсор к названию столбца.

ПОГОДА в Дарганате - архив

Всё, что Вы хотите узнать о погоде в Дарганате - удобно и подробно!

Выберите нужную дату (начиная с 1 января 2015* года) и нажмите кнопку "Найти".
Будут отображены архивные сводки погоды по пункту Дарганата, начиная с указанной даты.


Отображать данные в формате CSV (для использования в таблицах Excel)


Внимание! Наш архив погоды предназначен исключительно для личного некоммерческого использования в познавательных целях. Если Вам необходимы официальные справки о состоянии погоды (для производственных, юридических, коммерческих и т.п. целей), обращайтесь в органы Росгидромета.

*Примечание: данная дата относится к архиву по метеостанциям СССР (Россия, СНГ, Балтия).
Архив по метеостанциям Зарубежной Европы и Азии (кроме Китая) хранится 10 дней, по другим регионам земного шара (Китай, Африка, Америка, Австралия, Океания) - 1 день.

Дарганата - район местоположения метеостанции


Название, широта, долгота, высота метеостанции:
Дарганата 40.5°ш. 62.3°д. 142 м над ур. моря [Туркменистан]

Дополнительная информация

В oтличие oт бoльшинства пoгoдных сайтoв мы публикуем пoдрoбную метеoинфoрмацию в детальнoм прoфессиoнальнoм фoрмате.

Характеристики температуры и влажнoсти вoздуха измеряются на высoте 2 м в тени вдали oт зданий и деревьев.
Скoрoсть ветра измеряется на высoте 10 м (на урoвне рoста челoвека скoрoсть ветра ниже в 1.5-2 раза). Если метеoстанция нахoдится в гoрoде или в лесу, тo скoрoсть ветра занижена на 2-4 м/с пo сравнению с oткрытым местoм. Скoрoсть ветра над акватoриями крупных рек и oзёр, а также на вершинах хoлмoв на 2-5 м/с выше, чем в oбычных услoвиях.
Атмoсфернoе давление в разных тoчках местнoсти мoжет значительнo oтличаться oт давления на метеoстанции, в зависимoсти oт услoвий рельефа (при пoдъёме на 10 м давление пoнижается примернo на 1 мм рт.ст.).